Location: Newark
(9.4667°S, 159.8167°E)
Time: 02:00:39
(UTC+00:00)

Vanguard 3 - All Passes

Search period start: 23 November 2019 00:00
Search period end: 03 December 2019 00:00
Orbit: 507 x 3263 km, 33.4° (Epoch: 21 November)

Date Brightness Start Highest point End Pass type
(mag) Time Alt. Az. Time Alt. Az. Time Alt. Az.
23 Nov - 01:19:19 10° WNW 01:29:27 19° NNW 01:41:35 10° NNE daylight
23 Nov - 08:28:06 10° NNW 08:35:16 17° NNE 08:40:35 10° ENE visible
23 Nov - 10:40:58 10° NW 10:49:52 56° NNE 10:55:01 10° ESE visible
23 Nov - 12:57:24 10° W 13:01:29 20° SW 13:04:39 10° SSE night (unlit)
23 Nov - 19:36:50 10° SSW 19:42:32 33° SE 19:51:48 10° E daylight
23 Nov - 21:47:02 10° WSW 21:55:32 71° NNW 22:10:54 10° NE daylight
24 Nov - 00:01:29 10° W 00:11:47 28° NNW 00:26:08 10° NNE daylight
24 Nov - 02:28:55 10° NNW 02:32:08 11° NNW 02:35:26 10° N daylight
24 Nov - 07:13:52 10° N 07:18:37 12° NNE 07:22:43 10° NE daylight
24 Nov - 09:25:09 10° NNW 09:35:04 34° NNE 09:41:08 10° E visible
24 Nov - 11:40:22 10° WNW 11:47:54 54° SW 11:52:29 10° SE visible
24 Nov - 18:25:18 10° S 18:28:23 15° SSE 18:32:17 10° ESE visible
24 Nov - 20:33:42 10° SW 20:40:35 73° SE 20:53:17 10° ENE daylight
24 Nov - 22:45:49 10° W 22:55:03 40° NNW 23:09:55 10° NNE daylight
25 Nov - 01:05:03 10° NW 01:13:16 16° NNW 01:22:56 10° N daylight
25 Nov - 08:09:29 10° NNW 08:19:24 23° NNE 08:26:11 10° ENE visible
25 Nov - 10:23:46 10° NW 10:33:55 74° NNE 10:39:33 10° ESE visible
25 Nov - 12:41:37 10° WSW 12:45:34 18° SW 12:48:40 10° S night (unlit)
25 Nov - 19:21:02 10° SSW 19:26:23 37° SE 19:35:13 10° ENE daylight
25 Nov - 21:31:27 10° WSW 21:39:13 59° NNW 21:53:11 10° NE daylight
25 Nov - 23:46:36 10° WNW 23:55:32 23° NNW 00:07:43 10° NNE daylight
26 Nov - 06:54:09 10° NNW 07:02:47 16° NNE 07:09:31 10° NE daylight
26 Nov - 09:07:21 10° NW 09:19:07 44° NNE 09:25:55 10° E visible
26 Nov - 11:23:50 10° WNW 11:31:52 44° SW 11:36:45 10° SE visible
26 Nov - 18:09:20 10° S 18:12:27 16° SE 18:16:26 10° ESE visible
26 Nov - 20:18:00 10° SW 20:24:21 86° SE 20:36:05 10° ENE daylight
26 Nov - 22:30:35 10° W 22:38:50 32° NNW 22:51:46 10° NNE daylight
27 Nov - 00:51:43 10° NW 00:57:17 12° NNW 01:03:33 10° N daylight
27 Nov - 05:39:56 10° N 05:45:00 12° NNE 05:49:34 10° NE daylight
27 Nov - 07:51:09 10° NNW 08:03:25 30° NNE 08:11:19 10° E visible
27 Nov - 10:06:34 10° NW 10:17:51 89° SW 10:23:59 10° SE visible
27 Nov - 12:25:52 10° WSW 12:29:39 16° SW 12:32:40 10° S night (unlit)
27 Nov - 19:05:16 10° SW 19:10:16 43° SE 19:18:37 10° ENE daylight
27 Nov - 21:16:02 10° WSW 21:23:05 47° NNW 21:35:26 10° NE daylight
27 Nov - 23:32:10 10° WNW 23:39:29 18° NNW 23:48:58 10° NNE daylight
28 Nov - 06:35:18 10° NNW 06:46:45 21° NNE 06:55:14 10° ENE daylight
28 Nov - 08:49:36 10° NW 09:03:01 56° NNE 09:10:31 10° ESE visible
28 Nov - 11:07:17 10° WNW 11:15:47 38° SW 11:20:58 10° SSE visible
28 Nov - 17:53:22 10° S 17:56:32 18° SE 18:00:38 10° ESE visible
28 Nov - 20:02:25 10° WSW 20:08:15 78° NNW 20:18:51 10° NE daylight
28 Nov - 22:15:38 10° WNW 22:22:48 25° NNW 22:33:28 10° NNE daylight
29 Nov - 05:20:10 10° N 05:29:04 15° NNE 05:36:39 10° NE daylight
29 Nov - 07:32:58 10° NNW 07:47:16 38° NNE 07:56:09 10° E visible
29 Nov - 09:49:22 10° WNW 10:01:39 75° SW 10:08:19 10° SE visible
29 Nov - 12:10:04 10° WSW 12:13:44 14° SW 12:16:41 10° S visible
29 Nov - 18:49:31 10° SW 18:54:14 52° SE 19:02:03 10° ENE daylight
29 Nov - 21:00:45 10° W 21:07:05 36° NNW 21:17:38 10° NNE daylight
29 Nov - 23:18:33 10° NW 23:23:35 13° NNW 23:29:36 10° N daylight
30 Nov - 04:08:58 10° NNE 04:10:11 10° NNE 04:11:22 10° NNE daylight
30 Nov - 06:16:48 10° NNW 06:30:35 27° NNE 06:40:27 10° ENE daylight
30 Nov - 08:31:54 10° NW 08:46:46 69° NNE 08:54:58 10° ESE visible
30 Nov - 10:50:43 10° W 10:59:39 33° SW 11:05:10 10° SSE visible
30 Nov - 17:37:23 10° SSW 17:40:37 20° SE 17:44:49 10° E visible
30 Nov - 19:46:55 10° WSW 19:52:16 60° NNW 20:01:38 10° NE daylight
30 Nov - 22:01:05 10° WNW 22:06:55 19° NNW 22:14:56 10° NNE daylight
01 Dec - 05:01:21 10° NNW 05:12:56 19° NNE 05:22:35 10° ENE daylight
01 Dec - 07:14:54 10° NW 07:30:57 46° NNE 07:40:46 10° E daylight
01 Dec - 09:32:12 10° WNW 09:45:22 64° SW 09:52:35 10° SE visible
01 Dec - 11:54:14 10° WSW 11:57:50 14° SSW 12:00:45 10° S visible
01 Dec - 18:33:49 10° SW 18:38:15 66° SE 18:45:29 10° ENE daylight
01 Dec - 20:45:43 10° W 20:51:14 27° NNW 20:59:45 10° NNE daylight
02 Dec - 03:47:36 10° N 03:54:17 12° NNE 04:00:38 10° NE daylight
02 Dec - 05:58:32 10° NNW 06:14:12 33° NNE 06:25:19 10° E daylight
02 Dec - 08:14:14 10° NW 08:30:21 81° NE 08:39:18 10° ESE visible
02 Dec - 10:34:09 10° W 10:43:30 30° SW 10:49:21 10° SSE visible
02 Dec - 17:21:24 10° SSW 17:24:43 24° SE 17:29:00 10° E visible
02 Dec - 19:31:33 10° WSW 19:36:24 44° NNW 19:44:24 10° NE daylight
02 Dec - 21:47:20 10° NW 21:51:08 13° NNW 21:55:48 10° N daylight
